Home   Weather   Viernheim   Past weeks

Flag for Germany Past Weather in Viernheim, Hesse, Germany — Yesterday and Last 2 Weeks

43 °F

Passing clouds.

Feels Like: 41 °F
Forecast: 41 / 51 °F
Wind: 3 mph from West

Location: Frankfurt-M-Flughafen Airport

Current Time: Oct 21, 2016 at 2:30:28 AM

Latest Report: Oct 21, 2016 at 1:50 AM

Visibility: N/A

Pressure: 29.92 "Hg

Humidity: 100%

Dew Point: 43 °F

Location of ViernheimLocation

Past Weather in Viernheim — Graph


Viernheim Temperature Yesterday

Maximum temperature yesterday: 48 °F (at 12:50 PM)
Minimum temperature yesterday: 43 °F (at 12:20 AM)
Average temperature yesterday: 46 °F

High & Low Weather Summary for the Past Weeks

High64 °F (Oct 16, 3:50 PM)100% (Oct 9, 3:50 AM)30.27 "Hg (Oct 9, 3:50 AM)
Low39 °F (Oct 13, 2:20 AM)51% (Oct 11, 1:50 PM)29.65 "Hg (Oct 14, 7:20 PM)
Average50 °F82%30.07 "Hg
* Reported Oct 6 1:20 AM — Oct 21 1:20 AM, Viernheim, Weather by CustomWeather, © 2016

Note: Actual official high and low records may vary slightly from our data, if they occured in-between our weather recording intervals... More about our weather records


Viernheim Weather History for the Previous 24 Hours

Scroll right to see more
Time TempWeatherWind HumidityBarometerVisibility
1:20 AM
Fri, Oct 21
43 °FPassing clouds.3 mph93%29.92 "HgN/A
12:50 AM43 °FLight fog.6 mph93%29.92 "HgN/A
12:20 AM45 °FPassing clouds.5 mph93%29.92 "HgN/A
11:50 PM
Thu, Oct 20
45 °FLight rain. Partly cloudy.5 mph93%29.92 "HgN/A
11:20 PM46 °FLight rain. Partly cloudy.6 mph87%29.92 "HgN/A
10:50 PM45 °FLight rain. Partly cloudy.7 mph100%29.89 "HgN/A
10:20 PM45 °FRain. Passing clouds.5 mph100%29.89 "HgN/A
9:50 PM45 °FLight rain. Partly cloudy.2 mph100%29.89 "HgN/A
9:20 PM46 °FLight rain. Partly cloudy.3 mph93%29.89 "HgN/A
8:50 PM46 °FRain. Mostly cloudy.5 mph93%29.89 "Hg6 mi
8:20 PM46 °FLight rain. Partly cloudy.6 mph93%29.89 "HgN/A
7:50 PM46 °FLight rain. Partly cloudy.3 mph100%29.89 "HgN/A
7:20 PM46 °FPassing clouds.3 mph100%29.89 "HgN/A
6:50 PM46 °FPassing clouds.2 mph100%29.89 "HgN/A
6:20 PM48 °FPartly sunny.5 mph94%29.89 "HgN/A
5:50 PM48 °FPartly sunny.3 mph94%29.89 "HgN/A
5:20 PM48 °FLight rain. Partly sunny.1 mph94%29.89 "HgN/A
4:50 PM48 °FBroken clouds.3 mph87%29.89 "HgN/A
4:20 PM48 °FBroken clouds.2 mph87%29.89 "HgN/A
3:50 PM48 °FLight rain. Broken clouds.3 mph87%29.89 "HgN/A
3:20 PM48 °FLight rain. Broken clouds.3 mph87%29.89 "HgN/A
2:50 PM48 °FLight rain. Broken clouds.8 mph87%29.89 "HgN/A
2:20 PM48 °FSprinkles. Broken clouds.6 mph94%29.89 "HgN/A
1:50 PM48 °FSprinkles. Broken clouds.5 mph94%29.89 "HgN/A
1:20 PM48 °FLight rain. Broken clouds.7 mph94%29.89 "HgN/A
12:50 PM48 °FPartly sunny.6 mph94%29.89 "HgN/A
12:20 PM46 °FLight rain. Partly sunny.6 mph100%29.89 "Hg5 mi
11:50 AM46 °FLight rain. Partly sunny.6 mph93%29.89 "Hg4 mi
11:20 AM46 °FLight rain. Partly sunny.8 mph93%29.89 "Hg4 mi
10:50 AM45 °FLight rain. Partly sunny.8 mph100%29.92 "Hg4 mi
10:20 AM45 °FLight rain. Partly sunny.9 mph93%29.92 "HgN/A
9:50 AM45 °FLight rain. Broken clouds.7 mph93%29.92 "HgN/A
9:20 AM45 °FLight rain. Broken clouds.8 mph93%29.92 "HgN/A
8:50 AM45 °FLight rain. Broken clouds.8 mph93%29.92 "Hg6 mi
8:20 AM45 °FSprinkles. Broken clouds.6 mph93%29.92 "Hg4 mi
7:50 AM45 °FLight rain. Partly cloudy.7 mph93%29.92 "HgN/A
7:20 AM45 °FLight rain. Partly cloudy.8 mph93%29.92 "Hg6 mi
6:50 AM45 °FLight rain. Partly cloudy.7 mph93%29.92 "HgN/A
6:20 AM45 °FLight rain. Partly cloudy.6 mph93%29.92 "HgN/A
5:50 AM45 °FLight rain. Passing clouds.7 mph93%29.92 "HgN/A
5:20 AM45 °FPassing clouds.6 mph93%29.92 "HgN/A
4:50 AM45 °FPassing clouds.7 mph93%29.95 "HgN/A
4:20 AM45 °FLight rain. Passing clouds.5 mph93%29.95 "HgN/A
3:50 AM45 °FLight rain. Partly cloudy.6 mph93%29.95 "HgN/A
3:20 AM45 °FLight rain. Partly cloudy.5 mph93%29.95 "HgN/A
2:50 AM45 °FLight rain. Partly cloudy.3 mph93%29.98 "HgN/A
2:20 AM45 °FSprinkles. Partly cloudy.5 mph93%29.98 "HgN/A
Weather by CustomWeather, © 2016

See weather overviewHow to use our weather pages